Theta_e
363 363 361 360 362 358 350 347 325 330 329 319 321 322 321 334 335 333 331 337 332 340 344 343 342 338 335 333 334 337 335 330 332 323 323 341 353 354 357 360 358 359 359 361 363 364 365 365 364 364 365 365 365 365 365 366 365 366 366 365 366 366 366 365 365 365 366 365 364 366 366 365 364 365 365 365 365 364 363 363 361 358 360 361 359 358 358 356 356 356 356 356 358 358 357 358 358
361 361 360 358 358 350 338 345 327 326 326 321 322 326 327 334 332 330 328 331 336 339 344 343 340 341 342 339 339 339 337 341 342 338 345 349 352 354 357 359 358 357 358 360 360 362 363 367 364 364 365 365 365 365 365 365 365 365 365 365 365 364 365 365 366 365 364 365 364 363 363 364 363 364 364 364 364 363 363 361 358 356 358 358 360 358 357 358 356 356 356 357 358 357 358 358 359
358 359 357 356 355 349 343 340 323 321 317 315 321 322 332 330 329 332 334 334 338 342 344 343 342 341 340 338 334 337 332 344 343 345 344 351 346 350 357 359 359 359 359 359 360 362 362 366 365 365 365 366 366 365 365 365 365 365 365 365 365 365 365 364 364 365 364 364 363 364 363 363 364 363 364 362 359 360 361 359 357 358 358 357 359 358 357 357 355 357 357 357 357 358 358 358 359
360 361 355 351 340 347 334 332 324 321 317 317 320 330 332 330 330 336 337 338 340 342 341 340 338 346 339 331 335 339 338 340 345 343 342 346 350 355 358 359 362 359 358 359 361 361 362 366 365 366 366 366 366 365 365 365 365 365 365 365 365 365 365 364 364 364 364 364 363 363 363 363 363 364 363 360 359 359 359 360 359 359 358 358 356 358 358 357 358 358 357 357 357 357 357 357 359
357 359 354 351 339 331 333 326 324 322 317 322 317 328 331 333 333 336 338 338 342 342 340 342 341 344 346 343 342 336 339 346 346 349 345 351 355 357 359 360 359 358 357 358 360 360 363 365 366 366 365 365 365 365 365 365 365 365 365 365 365 365 365 364 364 364 364 363 363 363 363 362 363 362 363 360 360 361 361 362 361 360 359 357 357 355 355 356 359 359 357 358 357 357 357 358 359
356 354 359 352 338 343 337 323 321 320 325 327 323 323 331 335 336 337 338 339 342 344 342 342 339 338 337 343 347 343 350 338 349 347 348 350 354 358 359 360 358 358 358 360 360 361 363 368 366 366 365 365 365 364 365 364 364 364 365 365 364 364 364 364 363 363 363 364 363 363 363 363 362 359 364 362 362 361 360 362 360 360 360 356 356 353 352 357 360 359 358 358 357 358 358 358 358
352 351 350 349 345 344 323 321 320 321 324 330 329 328 332 335 338 337 335 338 342 343 345 343 343 340 336 341 344 349 353 353 351 348 353 353 357 358 359 358 357 357 359 360 361 362 365 367 366 365 365 364 364 363 364 365 363 364 365 365 364 364 364 364 364 364 364 363 364 363 362 362 363 363 363 363 363 362 362 361 362 361 360 359 358 355 355 355 355 360 358 358 358 357 358 358 358
358 346 343 336 328 332 322 321 322 324 326 334 335 332 333 336 338 337 336 336 332 334 341 346 345 338 339 345 338 349 354 355 353 353 355 355 356 358 358 357 355 357 358 360 361 363 369 366 365 364 364 363 362 364 363 364 364 364 364 364 365 364 363 363 364 364 364 364 364 364 364 363 363 363 364 363 364 363 362 362 361 361 361 358 358 358 356 357 359 359 359 358 358 359 359 358 358
353 348 351 338 324 330 322 321 324 330 331 334 334 337 336 338 336 333 331 337 336 338 340 344 344 336 341 342 345 351 353 355 354 355 355 355 355 356 357 356 354 355 358 358 360 364 367 367 365 365 365 365 363 363 364 364 365 364 364 364 364 364 363 364 364 364 364 364 365 365 365 363 362 363 363 363 363 362 362 362 361 360 361 360 361 360 361 359 359 358 358 358 358 359 358 358 359
349 345 332 332 328 321 321 322 322 326 328 332 331 333 334 335 333 332 333 332 336 339 342 344 343 338 342 341 345 350 351 356 354 353 355 355 356 357 356 356 355 355 356 357 360 362 363 367 365 365 364 364 363 365 365 365 365 364 364 365 364 364 364 363 364 364 364 364 364 364 364 364 363 363 362 362 362 362 362 362 362 362 361 360 361 359 360 359 358 357 357 359 359 358 358 358 358
338 348 344 330 323 320 319 320 324 329 331 332 333 334 336 335 333 330 335 336 339 337 341 343 338 341 342 342 346 357 359 356 351 350 353 354 356 356 355 357 357 356 355 356 360 363 363 364 365 364 364 364 364 364 364 365 365 365 364 364 364 364 365 364 363 364 364 364 364 364 363 364 362 362 362 361 361 361 361 361 361 362 361 361 361 361 361 360 358 356 356 357 358 358 358 358 358
336 334 338 324 320 321 321 321 326 329 333 330 330 335 337 334 336 333 335 332 336 336 337 345 339 345 339 339 343 351 354 354 354 352 353 355 355 356 355 356 356 355 355 356 359 360 363 364 363 365 364 364 364 364 364 365 365 365 365 364 364 365 365 364 364 364 363 363 363 363 363 363 363 362 362 362 361 361 360 360 361 361 361 361 361 360 359 358 358 357 357 357 356 358 358 358 358
338 338 330 322 321 325 325 324 326 329 329 331 330 333 336 332 335 336 336 336 336 334 334 344 347 345 336 339 349 351 349 353 354 351 353 354 354 356 356 355 355 355 355 358 357 360 362 360 359 364 363 363 364 364 364 365 365 365 365 364 364 365 365 364 364 363 363 363 362 363 364 363 363 363 363 362 362 362 362 361 361 361 361 361 360 361 358 358 357 356 355 354 357 358 357 358 357
339 338 335 323 328 324 323 324 327 324 325 331 336 337 338 337 337 340 340 333 333 335 343 347 346 344 341 344 342 344 349 353 353 354 354 354 355 355 353 353 353 355 356 358 359 359 361 360 360 360 364 366 366 365 364 365 365 365 365 364 364 364 364 363 363 362 362 362 363 363 364 364 363 364 363 362 362 362 362 362 361 361 361 361 360 357 355 356 355 355 356 357 355 357 357 357 357
340 342 337 329 321 322 325 321 326 325 324 333 335 336 340 342 342 342 339 334 336 345 348 352 349 341 334 339 338 343 348 353 352 355 353 352 351 354 354 353 354 354 355 357 358 361 362 361 358 360 365 365 366 366 367 369 365 365 364 364 364 364 363 363 363 362 363 362 363 364 364 363 363 363 363 362 362 362 362 361 362 361 361 360 359 358 358 356 355 352 356 356 357 357 358 357 356
344 341 335 323 318 319 322 324 331 326 327 334 338 338 339 340 343 339 342 345 341 346 346 338 347 341 343 344 346 348 351 354 355 355 351 350 351 351 353 353 353 353 357 358 358 360 362 360 360 359 363 364 366 365 366 368 368 365 365 365 364 364 361 362 362 363 362 363 363 363 364 364 364 366 363 365 364 363 363 365 363 362 363 363 361 361 360 359 358 357 356 357 357 356 357 357 357
346 341 325 321 317 319 322 323 325 321 334 337 342 340 334 336 344 346 349 348 340 341 344 347 343 351 346 349 352 350 352 356 356 353 352 350 351 349 352 352 352 353 354 355 358 359 362 360 360 358 361 363 362 365 365 367 366 366 366 365 361 361 362 362 363 362 362 363 364 364 363 366 367 369 368 368 365 371 364 364 363 363 363 363 362 363 362 362 361 359 358 360 358 356 357 357 357
340 331 325 319 321 320 327 325 329 335 334 335 340 341 340 337 340 343 348 343 342 343 343 345 347 348 353 355 354 353 353 354 353 351 349 348 349 346 346 349 349 349 351 354 358 358 359 359 361 359 360 360 363 362 362 365 368 366 367 365 365 365 364 364 365 365 364 368 361 366 369 366 366 369 368 361 369 366 369 362 363 364 363 362 363 363 363 362 362 360 360 360 360 359 359 363 362
335 330 325 318 324 327 333 331 332 335 334 338 341 343 342 339 341 342 338 337 339 337 340 344 342 346 351 352 352 352 352 352 350 350 347 346 345 345 346 349 348 348 350 352 355 355 358 359 360 357 358 361 359 362 359 364 365 366 366 367 365 363 366 367 367 367 368 368 368 367 367 368 367 371 372 368 368 363 363 365 364 364 362 361 363 363 363 362 361 362 360 360 360 359 364 360 357
336 330 322 322 329 331 333 333 332 338 339 339 339 340 344 341 343 346 338 335 338 335 336 338 339 341 345 347 350 351 352 350 350 349 350 350 349 347 348 347 348 350 349 351 353 356 359 358 358 358 360 361 360 360 361 362 363 366 364 364 363 365 367 367 368 368 368 367 364 366 364 365 364 371 363 366 369 371 370 366 365 364 366 366 366 366 365 364 363 364 361 362 361 361 359 362 361
333 332 324 325 330 330 332 334 335 338 340 339 339 340 341 343 345 343 340 335 334 338 342 339 340 341 345 348 349 352 351 349 350 350 351 352 352 351 348 348 348 350 349 351 354 354 356 357 357 359 361 360 360 361 361 360 362 360 360 362 363 360 363 364 364 365 366 366 366 365 364 363 363 366 366 368 367 367 366 367 368 368 369 372 369 371 370 371 367 365 362 360 364 361 358 359 361
331 326 329 330 331 330 333 333 336 338 341 338 339 338 340 345 343 342 341 335 332 338 345 344 344 346 345 346 348 350 350 350 348 350 351 353 351 352 351 351 350 349 351 350 352 354 354 355 356 357 359 359 360 360 357 360 362 359 360 360 360 362 361 360 362 363 363 364 364 363 363 362 362 364 366 367 367 367 365 366 366 368 368 370 371 369 367 370 369 365 364 363 366 364 364 361 359
326 329 328 331 331 330 334 335 334 339 336 334 335 343 343 342 342 343 341 338 337 342 344 346 346 349 350 350 349 349 349 350 350 350 352 354 354 353 352 350 348 347 350 351 352 353 354 355 357 357 357 359 359 362 362 361 359 364 361 360 361 361 361 361 359 360 363 365 364 363 360 359 359 359 362 365 364 365 363 362 361 365 367 366 370 369 368 368 367 364 364 367 366 365 365 362 361
328 324 328 330 333 332 336 336 338 337 337 336 342 343 338 339 335 343 340 340 340 342 345 347 347 351 352 349 350 349 349 351 351 352 353 355 356 355 356 352 350 350 351 349 350 351 354 353 357 356 357 358 361 361 363 358 360 361 362 363 362 362 362 359 357 358 362 363 365 364 362 358 355 356 359 359 360 360 359 360 361 359 361 363 369 371 368 365 364 367 367 368 367 367 365 364 359
326 326 328 332 334 335 338 339 338 341 342 344 342 335 337 339 342 343 340 343 343 344 347 347 348 351 350 349 349 349 350 351 352 352 353 355 358 359 359 356 352 349 348 347 350 349 351 352 356 355 356 358 358 358 357 360 360 361 361 360 361 364 362 358 359 364 360 361 362 365 363 354 352 352 352 352 354 355 356 359 361 358 360 362 365 366 369 367 366 366 367 366 367 367 366 363 360
325 325 328 332 334 336 339 339 339 340 341 343 337 336 338 341 346 337 341 342 345 344 346 347 348 348 347 347 349 350 350 350 351 351 351 353 356 358 359 357 352 348 349 350 348 350 351 352 353 353 353 356 356 356 360 360 361 360 362 362 360 364 358 360 364 356 354 354 355 361 358 354 349 349 351 354 355 358 361 362 363 360 358 358 359 363 365 367 367 367 367 368 366 366 365 364 361
327 327 330 332 334 336 337 336 338 341 343 342 337 335 337 342 337 329 338 344 343 341 343 347 346 346 346 348 349 350 349 350 351 353 351 351 352 354 357 358 356 352 353 351 351 353 354 354 353 355 354 359 356 352 359 362 363 361 362 361 362 361 360 364 361 355 353 353 355 362 362 359 352 350 353 358 363 362 365 365 361 360 357 355 360 359 365 367 366 367 367 365 365 364 364 364 364
330 331 331 332 334 336 337 337 338 342 340 344 340 337 339 342 336 332 342 344 344 339 340 344 347 346 347 349 349 350 350 353 353 353 350 351 349 352 354 354 356 356 357 355 355 356 353 353 354 358 356 359 358 353 360 359 360 361 362 361 360 361 365 360 354 355 355 352 355 361 364 358 361 360 362 364 364 365 364 363 359 359 358 360 365 362 361 369 370 369 366 367 366 365 364 363 364
330 331 328 328 332 333 335 334 339 340 339 343 344 338 336 337 335 339 340 345 344 341 340 342 345 347 347 349 350 350 349 351 350 350 353 354 355 356 354 357 357 358 357 360 360 356 352 356 359 363 360 362 361 354 356 357 358 358 360 359 360 361 362 359 353 354 355 358 362 364 366 366 371 368 367 369 369 366 364 362 359 361 361 367 366 365 364 368 365 367 365 366 366 364 361 360 362
332 329 325 327 327 328 334 338 342 337 342 341 342 323 327 334 336 340 344 345 345 341 342 342 344 344 345 348 348 348 350 351 350 350 353 356 357 358 358 360 361 361 360 360 362 360 356 359 363 366 364 363 364 358 360 358 360 360 360 359 361 360 355 355 354 354 353 356 362 366 367 369 368 367 369 369 367 366 363 364 363 361 365 369 370 369 367 367 363 366 358 360 361 361 360 360 358
323 325 325 316 317 317 328 332 341 334 342 342 339 321 321 330 335 342 346 344 343 340 342 341 343 344 345 347 349 348 351 351 351 353 357 358 359 359 360 361 361 363 362 363 362 363 361 361 366 365 366 365 364 361 362 362 363 360 358 357 357 359 356 354 351 356 353 357 363 364 369 368 368 367 370 367 363 365 361 361 364 365 367 369 367 366 372 366 365 363 366 362 358 361 360 360 358
322 317 315 317 313 317 325 330 335 330 339 341 334 325 322 329 334 343 343 344 343 340 340 341 342 344 345 347 348 348 350 352 353 356 358 360 361 359 360 361 362 361 362 364 366 365 366 365 365 363 367 365 365 363 364 363 362 361 358 359 359 363 355 357 355 360 360 365 369 369 371 372 371 373 373 371 365 363 361 361 362 368 368 368 366 368 369 367 367 364 364 362 358 358 359 356 357
320 315 311 311 313 312 315 323 331 332 335 336 332 320 324 328 335 341 343 343 342 341 340 341 342 342 345 346 347 348 349 351 352 354 355 358 360 360 360 362 362 363 362 363 364 365 365 365 363 362 364 364 364 364 365 365 364 362 363 360 360 364 361 358 362 364 364 370 370 368 369 370 372 372 373 372 367 363 362 362 363 367 370 368 364 363 365 366 365 362 363 364 362 356 356 354 356
313 316 312 313 311 312 311 322 327 330 328 330 334 326 326 329 334 338 341 342 340 341 341 341 341 342 345 347 345 345 348 349 350 353 356 357 358 361 362 361 363 363 362 363 365 365 365 365 364 365 366 366 365 364 366 365 365 365 364 363 364 364 368 366 366 366 367 366 367 367 370 371 371 372 372 370 369 365 365 365 369 368 367 367 365 363 363 365 365 364 361 363 362 357 355 355 355
310 311 311 311 313 313 311 311 322 325 329 323 328 329 328 330 333 334 338 341 340 339 340 340 341 341 344 346 347 347 347 348 349 355 357 360 361 362 362 363 363 364 360 362 366 367 366 366 366 365 365 365 363 364 364 363 363 364 363 363 364 366 365 364 364 365 364 365 367 368 367 367 369 371 369 368 365 364 366 367 366 366 366 365 365 365 363 364 362 358 357 358 357 358 356 357 357
312 312 311 311 310 311 311 313 320 320 318 324 324 322 325 329 331 334 337 339 339 340 341 341 341 341 343 344 346 346 348 348 351 354 357 360 361 362 363 364 364 363 361 363 364 365 365 363 365 364 365 366 365 364 363 360 360 360 359 362 360 359 359 361 362 362 364 365 364 365 366 367 368 369 369 368 366 366 366 365 365 362 362 363 362 362 362 360 356 353 351 352 353 357 359 359 358
315 314 313 312 311 312 313 314 316 322 317 318 321 321 322 325 328 333 338 338 339 339 339 340 341 341 342 342 343 346 348 349 352 356 358 360 361 362 364 363 363 364 362 362 362 362 363 362 361 360 362 365 363 364 364 362 361 359 360 359 358 359 358 360 358 357 359 362 362 362 365 366 367 365 365 367 365 364 364 366 368 366 365 363 362 362 363 361 358 356 355 356 355 356 357 359 357
314 313 312 311 312 310 313 314 320 322 315 316 322 322 321 324 328 332 337 338 336 337 338 340 341 341 342 344 344 345 348 352 355 356 358 360 358 359 361 362 362 360 360 358 358 361 362 363 361 361 363 362 360 362 362 366 362 360 358 357 357 358 355 355 357 358 357 358 359 361 361 362 363 363 364 365 365 365 366 365 367 366 364 362 362 365 364 363 361 358 356 355 358 356 355 355 358
314 313 312 310 312 312 314 319 321 322 320 318 320 320 322 325 328 332 334 336 337 337 339 340 342 342 342 343 345 346 347 350 354 355 357 359 359 358 358 358 360 359 360 358 358 359 360 362 362 363 362 363 366 360 360 357 360 361 360 359 360 356 355 357 357 358 357 356 357 358 359 359 360 364 364 365 366 365 365 365 365 365 363 361 361 361 362 361 359 357 357 354 355 358 357 359 359
313 312 311 309 311 309 308 319 314 318 319 316 318 320 321 329 331 331 336 334 337 337 339 343 344 342 341 340 343 343 345 349 351 353 354 357 358 357 355 355 356 357 358 359 358 357 357 358 360 361 360 361 362 359 359 361 362 360 361 360 358 356 353 356 356 357 355 355 355 357 360 361 360 362 364 364 364 364 363 364 364 364 363 363 361 358 358 358 360 358 356 355 355 351 351 356 357
314 313 312 310 310 311 310 310 313 315 320 324 321 318 316 323 326 330 335 337 337 337 339 342 345 346 345 346 342 345 345 348 349 351 353 356 356 355 355 355 356 355 357 355 354 354 355 355 357 359 359 359 360 359 359 360 358 356 356 356 355 353 354 355 355 354 353 353 355 357 359 362 362 362 364 364 363 363 364 362 364 363 361 361 361 358 357 356 360 359 357 357 357 354 352 354 358
312 313 312 311 311 310 311 312 311 311 313 324 314 307 308 319 322 320 334 333 333 338 339 340 344 347 347 345 344 345 346 350 350 349 352 354 355 356 356 356 356 355 355 355 355 355 355 354 355 357 359 361 359 361 361 362 356 352 352 349 349 349 350 352 352 352 353 353 356 360 361 361 362 364 365 365 365 364 362 363 364 362 360 359 360 360 358 357 359 356 357 355 355 358 356 352 352
308 310 313 312 311 311 310 309 309 306 306 315 319 307 304 313 315 326 331 332 333 338 337 337 341 345 345 345 347 345 346 348 352 351 353 354 354 355 355 356 354 354 354 355 354 353 354 354 356 357 358 361 360 356 360 356 352 354 353 352 352 351 350 353 358 358 356 358 358 360 361 364 363 361 361 361 365 364 364 364 363 363 362 363 363 361 355 351 350 352 354 352 350 356 354 351 350
307 313 313 311 311 310 309 310 309 308 314 315 319 316 308 309 317 325 327 328 331 333 335 336 337 342 343 345 344 346 345 346 350 352 354 355 355 354 355 355 354 354 355 354 352 353 355 355 357 357 358 359 360 359 356 358 355 355 355 354 353 352 353 354 356 356 359 359 360 358 360 359 357 361 360 364 365 364 364 362 363 362 363 359 355 351 348 347 349 350 353 353 352 354 352 348 347
310 313 313 311 310 310 311 311 310 311 310 307 316 318 310 308 319 327 328 324 327 330 334 335 337 340 343 344 343 345 345 346 350 351 353 354 355 355 355 354 354 355 355 352 352 353 355 357 358 357 358 355 356 354 357 357 357 356 351 353 352 354 355 355 356 356 357 360 358 359 356 355 355 361 361 363 364 364 362 362 359 361 357 354 356 350 351 348 347 349 352 352 352 351 349 348 347
312 313 313 312 312 311 312 311 311 312 310 305 309 315 307 306 313 319 323 321 322 325 329 334 337 338 341 342 343 344 344 347 349 351 353 354 355 356 354 355 355 355 354 355 353 353 355 356 357 357 357 354 355 354 353 353 356 359 359 357 355 354 354 354 356 357 358 361 359 357 356 352 356 355 358 356 360 362 362 361 361 357 354 351 351 349 348 349 349 350 349 348 351 350 348 346 344
314 312 310 310 311 311 313 313 312 311 304 307 308 311 310 302 310 312 315 318 320 324 330 333 339 340 340 341 342 343 343 346 348 351 354 356 357 356 356 353 353 354 354 353 352 352 353 355 356 357 359 361 355 353 354 354 358 357 357 357 357 354 353 354 355 358 360 358 354 355 354 353 353 353 356 359 360 357 357 363 353 352 351 352 348 346 348 344 344 345 346 348 349 347 344 345 344
312 309 309 309 309 311 311 311 314 304 301 308 310 309 311 302 308 315 321 323 324 323 324 331 334 338 339 340 341 342 344 346 347 350 355 357 356 354 354 352 353 354 354 353 352 352 353 356 356 357 359 361 362 356 356 357 356 357 357 355 355 357 354 353 357 357 356 356 354 352 354 353 353 355 352 352 358 357 358 356 356 355 354 352 349 348 349 348 348 347 347 346 345 347 347 346 343
310 309 309 303 303 305 302 306 302 302 300 308 311 312 309 309 313 316 321 323 326 328 328 330 333 336 340 339 341 342 344 344 345 352 355 356 353 351 352 352 352 353 352 352 352 352 353 357 357 356 356 358 357 358 356 355 356 353 353 354 354 358 359 358 357 356 354 354 353 351 350 347 347 346 344 345 347 349 352 356 355 352 354 356 356 353 351 351 350 345 345 342 344 346 343 345 341
308 306 306 303 300 300 297 300 303 302 305 310 311 316 306 310 314 320 321 326 329 333 334 333 335 337 340 341 342 343 343 343 346 352 354 355 354 352 351 351 351 351 352 352 351 352 354 355 357 356 356 355 356 356 356 355 354 353 355 355 358 359 359 359 356 352 351 354 352 350 345 343 344 343 343 344 346 346 346 349 353 353 357 358 356 354 350 350 349 344 344 343 342 346 347 348 346
308 310 308 306 305 300 297 300 298 299 302 307 315 307 304 305 309 317 325 326 332 334 334 335 338 340 342 342 343 344 343 346 348 353 354 354 353 353 350 350 351 351 352 352 353 353 354 354 357 356 353 354 355 355 356 354 353 353 355 356 355 357 358 356 353 352 351 352 349 345 345 344 342 343 342 347 348 347 346 349 346 347 350 352 352 350 346 347 347 347 345 346 347 346 347 344 344
311 311 311 306 305 310 301 304 303 303 302 303 309 305 310 310 322 325 326 330 333 333 333 334 339 340 341 341 341 341 343 344 348 353 354 355 355 354 351 350 351 352 353 352 352 353 353 355 358 356 352 352 353 354 355 355 354 353 352 352 351 354 354 356 357 353 350 348 347 346 346 343 342 340 344 344 343 344 344 344 345 346 349 347 348 349 348 345 347 344 344 346 345 346 344 343 341
308 308 304 307 314 310 306 307 307 306 303 301 308 307 312 317 317 325 330 332 331 333 332 335 337 339 342 340 341 341 343 344 347 352 353 355 354 353 351 350 350 351 352 352 354 354 355 354 355 356 353 353 354 353 355 353 354 352 351 352 353 355 355 355 348 349 347 348 349 347 342 340 341 344 340 343 344 344 347 345 344 344 347 347 349 348 345 347 348 345 340 345 344 342 344 342 342
309 304 308 313 314 312 307 300 305 303 299 302 306 303 306 307 303 320 328 329 330 331 334 334 339 341 340 341 341 342 343 344 350 353 355 355 354 352 351 351 350 352 351 353 354 355 356 356 355 358 355 352 353 354 353 355 350 352 351 352 353 355 355 352 349 348 349 349 346 343 342 337 339 340 342 341 343 343 346 344 345 346 345 347 347 346 346 346 347 345 344 345 344 347 345 344 343
310 308 313 307 303 302 307 304 297 297 298 300 304 305 306 308 308 313 318 316 328 331 334 335 336 338 340 341 342 344 344 346 350 352 353 353 353 352 352 351 351 352 354 355 354 354 355 356 359 358 355 355 355 353 351 352 352 353 354 357 358 355 351 350 350 351 348 343 340 340 340 342 341 343 344 345 345 342 344 344 347 346 347 347 347 346 347 347 346 345 345 342 344 347 345 344 344
312 313 310 313 309 306 305 305 306 305 299 299 301 303 302 312 311 313 316 319 331 330 331 332 334 338 340 341 342 343 345 348 348 349 351 352 353 353 352 351 350 351 352 352 353 354 353 356 358 358 357 357 356 356 355 354 355 357 356 355 353 353 353 350 349 347 343 340 341 342 342 341 342 342 344 343 344 346 346 344 345 344 344 344 343 344 346 346 346 345 343 342 342 345 343 344 343
306 307 306 308 308 311 309 308 305 303 301 301 300 299 305 313 316 317 322 324 330 331 332 334 336 339 340 342 343 344 344 345 347 349 351 351 351 351 352 352 350 351 352 353 353 353 353 355 355 358 356 355 357 358 359 359 360 356 353 350 350 351 350 347 346 344 345 343 344 344 343 343 345 344 345 345 345 347 348 347 345 345 344 346 347 346 346 346 345 345 344 345 345 344 344 343 343
309 307 306 308 306 304 301 300 308 305 302 302 300 299 308 319 323 322 322 326 330 332 334 334 336 338 341 342 343 343 344 346 348 348 347 348 351 352 352 353 352 351 352 352 352 352 353 353 353 354 352 353 352 354 359 359 355 354 353 350 350 350 349 348 347 347 345 342 343 343 345 345 343 346 348 344 345 344 345 345 345 345 347 347 346 348 346 344 345 345 344 342 342 344 344 342 343
Wind_Speed
9 6 3 2 3 2 4 4 5 4 5 6 4 5 3 1 3 2 3 4 4 3 3 1 8 9 3 4 5 5 5 2 5 2 3 4 7 12 10 13 16 15 14 12 12 12 11 8 6 10 10 10 10 10 10 10 10 10 10 10 10 11 11 11 11 11 11 10 11 10 12 11 12 11 10 10 9 8 9 9 9 6 5 6 7 6 5 5 3 6 3 2 4 5 3 3 1
6 4 3 1 2 2 1 1 4 3 4 5 2 2 6 5 3 2 4 3 3 4 3 4 8 7 3 2 4 4 8 9 9 8 6 7 11 10 11 14 15 15 13 12 12 11 11 10 6 9 10 10 10 10 10 10 9 9 9 10 10 10 11 10 11 10 10 10 11 10 10 11 11 10 10 10 9 10 9 10 9 6 4 2 6 6 6 7 5 4 5 6 5 6 5 3 3
4 4 3 3 3 3 2 3 3 3 5 5 3 2 3 3 2 3 4 4 1 4 5 7 8 7 5 5 6 3 6 5 8 10 8 11 12 9 12 13 13 13 13 11 11 11 10 11 7 8 9 10 10 10 9 9 9 10 10 10 10 10 10 10 10 10 10 10 8 9 9 8 10 9 10 11 7 7 10 10 8 9 7 5 5 5 6 7 7 9 6 4 5 7 7 5 5
4 3 2 2 3 2 2 3 5 3 4 1 4 5 2 1 5 5 4 3 1 4 6 9 9 1 2 6 5 6 7 5 8 9 9 10 7 12 12 13 14 11 11 10 11 10 10 11 9 9 9 9 10 10 9 9 9 9 9 10 10 10 9 9 10 9 9 9 8 8 8 8 7 8 8 8 12 9 10 9 11 10 8 6 4 5 6 6 7 7 7 7 8 7 7 7 7
4 3 2 3 4 2 3 3 3 1 2 4 1 6 4 2 3 5 5 1 2 6 7 8 5 4 4 5 3 1 5 8 7 7 9 8 12 12 13 14 12 11 11 11 10 11 11 13 10 9 8 9 9 10 9 9 9 9 9 9 9 9 9 9 9 9 9 8 7 7 7 7 6 6 9 8 10 10 10 9 9 9 8 7 8 5 6 8 7 6 6 8 9 7 8 8 8
4 3 2 4 3 2 4 3 1 1 4 3 4 5 4 3 3 5 5 3 2 5 7 8 3 8 6 6 5 4 4 2 7 7 10 10 14 14 14 13 12 11 11 10 10 9 12 13 11 10 9 9 10 9 9 10 9 9 9 9 8 9 9 9 9 8 8 8 7 6 8 7 9 8 8 6 11 10 8 9 8 9 10 7 6 4 4 6 7 8 8 8 7 7 7 8 8
3 4 4 4 5 3 4 4 3 3 4 5 3 3 4 3 4 5 6 6 4 2 5 6 2 8 6 5 7 7 6 5 2 9 7 13 14 14 14 12 12 12 11 10 9 10 14 13 12 11 10 10 9 9 10 10 9 9 9 9 8 8 8 8 8 8 7 7 7 6 8 6 6 6 6 6 5 6 8 8 9 8 11 9 9 6 7 9 8 8 8 7 7 7 8 8 8
1 5 0 4 2 3 2 3 3 4 3 5 4 2 3 4 5 4 5 4 5 5 7 4 6 3 4 1 2 5 6 4 6 10 14 13 14 14 13 12 12 12 11 10 9 10 14 14 12 11 10 9 7 10 10 10 9 9 9 9 8 8 8 8 8 8 8 7 6 6 6 6 6 6 6 6 5 6 4 4 6 8 7 9 12 14 14 11 6 4 6 5 5 5 6 6 7
4 6 3 5 3 2 2 5 4 5 5 5 4 5 4 6 5 6 2 2 5 3 7 7 3 6 6 5 5 6 6 5 8 12 14 15 14 14 10 12 12 11 11 10 10 11 11 13 12 11 10 10 9 9 9 9 9 9 9 8 8 8 8 8 8 8 7 7 7 6 6 8 6 6 6 6 5 4 4 4 3 4 4 4 4 3 4 5 3 2 2 3 4 5 5 6 8
4 3 3 4 4 4 5 6 4 6 4 5 6 5 6 6 6 0 7 6 4 7 4 3 3 4 7 6 6 5 5 6 11 13 13 14 14 12 12 12 12 13 11 10 10 11 10 13 12 11 10 10 9 9 9 8 8 8 8 8 8 8 8 7 8 7 7 7 7 7 6 7 6 7 6 5 5 5 4 4 3 3 3 4 5 5 6 6 6 3 1 3 4 4 5 6 8
5 4 2 5 3 7 8 6 6 6 5 6 7 7 6 6 7 4 1 8 4 5 5 3 6 4 4 5 4 3 5 8 12 14 14 14 13 12 11 10 11 11 12 12 10 10 11 10 12 10 10 10 9 9 8 8 8 8 8 8 8 8 8 7 7 7 6 6 6 6 6 6 6 6 5 5 5 4 3 3 3 4 4 4 3 6 6 6 7 3 1 4 3 5 5 6 6
5 4 2 7 7 7 7 7 6 6 5 7 5 7 4 2 3 6 7 8 6 6 4 5 4 4 3 3 4 5 6 8 11 13 13 13 11 11 11 9 9 9 11 11 11 9 10 10 9 10 9 10 10 9 8 8 8 8 8 8 8 8 8 7 7 6 6 6 6 5 5 5 5 5 4 4 4 3 3 2 3 3 3 3 6 7 6 5 6 3 3 1 2 3 5 5 5
7 5 6 4 7 6 6 7 6 5 8 10 8 3 4 4 7 9 7 8 6 6 2 1 4 3 4 2 5 6 7 10 11 13 13 11 11 10 10 10 10 10 10 10 10 9 10 9 9 8 9 9 10 9 9 8 8 8 8 7 7 7 7 7 7 6 6 6 5 5 5 4 4 4 3 3 3 2 1 2 2 3 3 4 6 8 6 5 7 4 2 1 1 2 3 5 5
5 5 6 5 1 6 8 7 5 6 8 8 6 5 1 1 4 5 6 8 4 3 2 2 2 1 4 4 5 6 8 11 13 13 11 12 11 9 11 9 10 10 10 9 8 9 8 8 8 8 8 8 8 9 9 8 8 7 8 7 7 7 7 6 6 5 5 5 5 4 3 4 4 3 3 3 2 2 2 2 2 3 2 3 8 7 3 1 5 3 3 1 0 2 3 3 3
5 4 4 4 8 5 8 7 7 7 8 6 2 5 4 5 4 5 5 7 4 3 4 1 2 4 3 7 6 7 11 12 13 12 12 12 11 10 9 9 9 9 9 9 8 8 7 7 7 7 8 7 8 7 7 8 8 8 7 7 6 6 6 6 6 5 4 5 4 3 3 2 2 2 2 2 2 2 3 1 3 2 4 3 4 9 7 4 3 2 4 1 2 2 3 4 3
4 6 5 5 9 8 7 6 3 7 8 8 5 4 4 7 3 5 3 3 4 3 3 2 3 1 4 4 7 11 14 14 12 11 12 12 10 10 9 9 8 8 7 7 8 7 6 7 7 6 7 7 7 6 6 7 10 9 7 7 7 6 6 5 5 4 4 3 3 1 2 2 5 4 3 2 3 1 3 4 4 3 4 4 3 2 3 7 8 8 7 5 4 3 4 4 4
4 3 3 8 9 9 8 7 5 8 9 9 7 5 6 5 4 3 1 3 7 7 3 3 1 4 1 3 10 13 15 13 13 13 12 11 9 8 7 6 7 7 5 7 7 6 7 6 7 6 7 8 7 6 6 6 8 9 7 9 5 5 5 3 4 4 4 5 4 4 3 2 3 3 4 3 4 3 3 2 3 3 2 4 4 4 3 3 2 2 5 8 8 6 4 5 5
5 3 7 9 9 10 7 8 7 8 8 10 7 4 6 6 4 6 7 5 4 5 3 4 1 1 4 8 11 13 15 14 14 14 12 11 10 9 8 7 7 7 7 7 7 7 7 6 7 5 6 8 7 5 4 4 5 5 5 6 5 6 6 6 5 3 4 4 4 2 1 2 2 2 2 1 2 2 6 2 0 1 1 2 3 2 2 2 2 1 3 5 6 6 8 3 4
5 5 5 9 9 7 6 5 6 3 8 9 8 5 4 6 6 5 5 7 6 5 4 5 4 5 8 10 12 13 14 14 15 13 14 14 11 11 9 8 7 7 7 7 7 8 6 6 6 6 7 6 7 5 4 4 4 4 4 4 4 3 5 4 3 3 2 2 2 1 1 2 2 1 2 4 4 3 2 1 1 2 1 1 3 2 3 2 3 3 2 5 3 3 1 2 5
1 6 8 9 5 8 6 4 5 4 9 9 8 7 4 7 4 5 4 6 5 5 5 6 5 7 9 11 13 14 14 15 15 14 14 12 10 11 9 10 8 8 8 7 7 7 7 6 6 6 6 6 5 5 4 5 5 4 3 4 4 4 4 3 3 2 2 1 1 0 1 2 1 1 3 4 6 4 5 9 6 6 7 6 5 5 6 8 5 6 4 8 6 2 3 3 2
4 4 9 7 7 5 8 3 4 5 7 8 8 7 6 6 5 5 4 6 6 5 4 6 7 9 11 13 13 14 15 15 15 14 13 12 10 9 9 9 8 8 7 6 6 7 8 7 6 6 6 5 6 4 4 4 5 4 4 4 3 3 3 3 2 3 2 2 1 2 1 0 0 1 1 1 2 1 2 2 3 3 2 3 8 4 4 3 7 7 6 5 4 5 5 2 3
6 5 5 5 2 7 5 6 4 5 4 7 7 7 6 7 6 5 6 4 3 3 5 7 8 10 12 14 14 13 14 14 14 14 13 12 12 10 8 8 8 8 6 6 6 6 7 7 6 6 6 5 5 4 4 3 2 4 4 3 3 3 3 3 3 3 3 2 2 1 1 2 3 2 2 1 1 2 3 2 2 2 2 3 3 4 3 3 3 2 2 1 2 3 2 6 5
4 7 5 3 5 6 4 5 6 5 5 5 6 3 6 6 5 6 6 5 4 1 3 7 8 10 12 11 13 14 14 14 14 13 13 12 11 10 8 7 7 7 6 6 6 5 6 7 6 6 6 5 5 4 3 3 4 3 3 3 3 3 3 2 3 3 2 1 2 2 3 2 2 2 2 2 2 3 3 3 2 3 3 3 2 3 3 3 4 4 2 1 1 2 1 2 3
4 6 5 4 0 6 5 6 6 5 2 4 2 3 5 5 5 5 7 6 3 4 3 7 9 10 12 12 13 13 13 13 13 12 11 11 10 10 7 7 7 6 5 6 6 6 7 8 7 7 6 6 5 5 4 3 3 3 2 2 3 0 1 3 2 2 1 3 3 1 2 2 2 2 2 3 3 4 3 3 3 3 3 2 1 3 3 3 3 3 3 2 2 1 1 2 1
3 2 4 4 2 6 6 6 6 4 4 4 3 5 2 6 1 4 7 7 5 3 4 8 10 12 12 12 13 13 13 13 12 11 9 9 9 8 7 6 6 7 7 7 6 6 8 7 8 8 7 7 5 5 5 4 3 3 3 3 3 2 3 2 1 1 3 2 2 3 3 4 3 3 3 4 3 3 4 4 3 3 4 3 2 3 3 3 3 3 3 3 2 1 0 2 1
4 4 1 3 3 5 6 7 6 6 3 4 6 5 2 3 1 7 7 7 7 6 7 9 11 12 12 12 12 12 12 13 12 12 11 9 7 9 8 7 7 8 7 7 7 6 6 8 8 9 7 7 5 5 4 4 3 3 3 2 2 2 3 2 2 3 3 3 3 3 3 4 5 4 4 3 4 4 4 4 5 4 4 4 2 4 2 3 3 3 3 3 2 2 2 2 2
5 0 1 3 4 5 5 4 6 4 2 5 5 5 4 3 4 3 8 7 8 9 8 10 11 12 12 11 12 12 12 12 12 10 10 8 8 9 9 8 7 7 6 7 6 5 5 6 8 8 8 6 6 5 4 4 3 3 3 3 3 3 2 3 4 4 3 3 2 1 3 4 5 5 5 4 3 4 4 4 5 4 5 4 3 4 2 2 3 3 3 3 2 2 1 2 2
1 3 4 4 4 3 4 3 6 5 4 5 4 3 3 5 6 4 4 8 9 10 9 10 10 11 11 12 11 11 11 11 10 11 12 12 9 9 10 8 8 7 5 6 5 5 6 8 7 7 7 7 6 6 5 4 4 4 4 3 3 3 2 3 4 3 3 3 2 2 3 4 4 5 5 5 5 5 5 5 6 5 4 4 3 4 4 1 2 2 2 2 0 2 2 2 2
2 3 2 3 5 4 5 5 6 5 2 5 2 6 8 9 7 9 5 7 9 9 9 10 11 10 11 11 11 10 10 10 9 10 12 11 9 8 9 8 7 7 6 6 6 7 7 7 5 6 6 7 7 7 5 5 4 4 4 4 3 3 4 4 4 3 3 2 3 3 3 3 3 4 4 5 6 6 6 5 7 5 4 3 4 5 4 2 2 1 0 1 3 4 3 4 3
5 4 4 6 6 3 7 4 5 7 3 4 4 3 5 8 10 5 8 8 9 9 9 9 9 9 9 10 11 11 11 11 12 12 11 11 10 9 9 8 8 7 6 6 7 7 6 3 4 4 6 6 7 6 4 4 4 3 3 3 3 3 3 3 3 4 3 3 3 2 2 2 3 4 4 5 5 6 8 5 5 5 2 1 2 3 3 2 1 2 3 5 2 3 4 4 5
4 3 6 4 3 5 6 5 8 7 7 6 6 4 2 6 8 9 8 9 10 9 9 8 8 9 10 10 10 11 11 12 13 13 12 11 9 9 9 9 9 8 6 5 6 6 6 5 4 4 6 8 8 7 6 5 4 4 4 3 2 3 2 3 3 3 4 4 3 1 1 3 4 4 4 3 3 4 6 5 4 3 2 3 1 4 2 1 3 2 2 2 4 4 5 5 5
2 7 3 3 5 6 6 5 9 6 6 7 6 6 1 6 7 11 9 9 9 8 8 8 8 9 9 9 10 10 11 11 11 12 12 12 11 9 10 10 10 10 9 6 5 5 6 6 6 6 7 8 8 7 6 6 5 4 3 2 2 2 3 3 3 2 3 3 2 3 4 5 5 3 3 2 3 4 5 4 3 3 3 3 2 2 2 2 3 3 2 3 5 5 3 5 5
4 5 2 3 4 7 3 7 7 7 3 9 9 5 6 4 6 9 10 10 10 8 8 8 9 9 9 9 9 9 10 11 11 12 12 11 11 10 10 11 11 12 10 10 7 6 7 8 8 8 8 8 8 7 6 6 5 4 4 3 2 2 3 3 2 2 3 2 3 4 4 5 5 3 2 2 3 4 5 5 3 4 3 3 3 3 2 2 3 3 2 3 5 4 5 6 4
4 0 4 4 6 6 6 5 4 6 6 5 10 8 7 2 7 9 10 11 10 9 9 8 8 7 9 8 9 10 10 11 12 13 14 13 11 13 11 11 12 12 10 10 11 10 9 8 8 7 7 7 6 6 6 6 5 3 3 3 2 1 0 1 1 2 2 3 3 3 3 3 3 3 3 2 3 4 5 5 5 5 5 4 4 4 3 3 3 3 4 4 3 4 5 5 4
5 5 5 3 6 2 5 8 4 5 8 8 6 10 11 8 4 8 11 12 11 10 8 9 9 9 8 9 9 10 10 11 11 10 12 13 13 13 12 12 12 12 8 11 11 10 9 8 7 7 7 7 7 6 6 5 4 4 3 3 3 2 1 1 3 3 2 3 3 2 2 3 3 3 3 3 4 5 5 5 5 4 4 4 3 4 4 3 4 4 5 5 4 4 4 4 4
7 8 7 7 6 6 7 8 4 3 5 7 8 8 8 7 8 8 9 12 12 10 9 8 9 9 9 9 9 9 9 10 8 8 10 10 11 11 11 10 11 11 10 10 11 10 10 9 7 7 8 8 7 7 6 6 6 6 6 5 4 3 3 3 3 4 2 3 3 2 3 4 4 3 3 4 5 5 5 5 4 4 4 4 4 5 5 3 3 3 4 4 4 4 4 2 2
7 8 7 7 6 4 4 6 4 2 7 6 6 8 10 9 6 8 10 11 11 11 11 10 9 9 9 9 9 9 9 8 7 7 9 10 10 9 9 9 10 11 11 12 13 12 11 10 10 11 10 9 8 6 6 6 6 5 5 5 5 5 4 4 3 3 4 3 4 5 4 5 4 3 4 5 5 5 5 5 3 3 3 4 5 5 4 4 3 3 3 4 4 3 2 1 1
7 9 9 6 7 5 8 4 2 1 5 7 4 8 10 8 7 7 10 11 13 13 12 12 11 11 10 10 10 9 8 5 6 7 8 10 9 9 8 8 10 12 12 12 13 13 11 12 12 11 9 9 10 7 4 4 4 5 5 5 6 5 4 4 4 3 4 4 4 4 4 4 5 4 5 5 5 5 5 4 3 3 2 4 4 4 4 5 4 4 2 3 2 2 1 1 2
9 8 7 7 2 8 1 4 2 1 5 5 6 9 9 7 6 8 11 13 11 12 13 12 12 12 10 10 10 9 8 8 8 8 9 9 10 10 9 9 10 12 12 12 12 12 12 11 11 10 9 8 7 7 6 4 1 3 6 6 7 4 3 3 3 3 3 4 4 4 5 5 6 5 5 5 5 5 5 4 3 2 3 3 2 2 4 5 3 2 2 2 1 1 1 1 2
9 8 7 6 8 8 4 5 4 2 5 7 8 10 8 7 4 7 11 11 10 11 13 12 11 11 12 11 10 10 10 9 9 8 8 9 10 10 9 9 9 9 8 8 10 11 9 10 10 9 8 8 7 9 9 8 7 6 4 5 2 2 2 3 3 3 4 5 5 4 6 6 6 6 5 5 4 5 5 4 3 2 3 2 1 2 3 2 3 2 2 1 2 1 3 1 2
7 6 6 7 7 8 6 9 12 11 6 4 9 7 3 3 4 6 8 9 8 10 11 11 11 11 10 10 10 10 10 10 8 8 8 9 9 10 10 9 9 10 9 10 11 10 8 11 10 9 9 9 8 8 11 10 9 6 5 3 2 2 2 3 3 4 4 4 4 4 6 6 6 6 5 6 5 5 4 3 3 3 3 2 1 2 2 1 1 2 1 1 1 3 1 0 1
8 6 4 6 7 8 9 10 12 8 3 3 9 5 2 3 1 2 8 8 10 9 11 12 12 11 10 11 10 9 10 9 9 9 8 9 9 9 9 9 9 9 9 9 9 10 9 9 10 9 8 7 9 10 11 9 9 10 7 5 4 4 5 5 5 5 4 3 4 4 5 5 6 6 5 5 6 4 3 4 3 3 4 2 3 2 1 2 3 2 1 1 2 0 3 1 3
8 2 3 4 7 9 10 10 10 7 6 5 4 6 4 4 3 7 7 7 9 9 11 12 12 11 11 11 10 10 10 9 9 8 8 8 9 9 9 8 8 7 7 7 8 9 9 9 9 9 8 7 7 9 10 9 10 7 8 7 7 7 6 6 5 3 3 2 3 5 5 2 4 6 3 5 5 4 3 4 3 4 4 4 3 2 2 3 1 1 0 1 2 1 2 3 3
8 9 4 4 8 9 10 11 9 8 5 4 1 3 7 4 6 6 4 5 7 9 11 12 11 12 12 12 11 10 9 10 8 9 9 9 9 8 8 7 6 5 7 8 8 8 9 9 8 8 6 6 5 5 9 8 8 9 7 8 8 8 6 4 2 2 3 3 4 5 5 1 4 4 4 5 4 4 4 4 5 5 5 4 4 3 2 2 1 1 1 1 2 2 2 4 4
7 5 5 8 8 9 11 9 8 5 6 3 3 2 5 4 5 5 4 3 4 6 9 11 13 12 12 12 12 11 10 9 9 8 9 8 8 7 7 5 4 4 5 6 6 5 6 6 6 7 6 6 5 6 6 6 7 10 10 8 8 6 5 5 3 3 3 3 5 3 4 4 4 4 3 4 5 5 5 6 7 6 5 2 2 2 2 1 2 2 1 2 2 3 3 2 4
2 5 5 8 8 9 8 8 6 3 6 4 4 3 5 4 4 3 6 3 4 5 2 7 11 13 12 12 12 11 9 8 8 7 7 8 7 7 5 5 6 4 5 6 4 4 4 4 5 6 6 8 8 8 8 9 10 8 8 7 7 5 4 3 3 2 2 1 3 3 3 5 3 0 4 4 7 4 6 7 6 4 3 2 4 0 2 2 2 2 2 3 4 4 3 4 4
9 10 10 10 9 7 5 6 5 5 7 1 2 3 5 5 3 5 5 4 4 3 5 4 7 10 11 11 11 10 9 8 7 7 8 9 8 7 7 6 6 5 5 6 4 3 3 4 7 6 6 4 10 8 9 10 6 6 6 5 5 4 5 4 3 2 1 3 4 3 2 1 4 5 6 6 6 9 8 6 4 4 3 2 3 2 3 4 4 4 4 2 3 4 5 5 5
4 6 7 6 8 5 6 5 4 6 4 4 2 5 3 6 3 4 5 4 2 1 2 5 6 10 11 11 10 10 9 8 8 8 10 10 9 8 8 7 7 7 6 6 6 5 4 5 6 6 5 6 6 10 9 7 5 5 4 4 3 1 2 2 2 3 2 2 3 2 2 7 6 6 7 5 6 4 4 4 3 1 2 2 2 3 3 3 4 4 3 5 4 3 4 4 5
6 6 7 8 4 4 7 6 8 7 3 3 3 3 4 4 5 5 5 3 2 1 2 4 6 9 11 12 12 10 9 9 9 8 10 10 9 9 8 8 7 7 7 7 6 6 5 5 7 7 7 6 6 8 7 6 5 5 4 3 3 2 2 2 2 3 1 2 1 2 5 4 3 3 3 5 6 7 5 3 2 3 2 2 2 3 3 3 4 5 4 6 2 3 4 5 6
9 8 7 8 7 6 6 5 4 7 3 3 1 0 6 5 4 6 5 5 4 3 3 3 5 8 11 12 12 10 10 9 8 8 9 9 9 9 8 7 6 6 6 7 7 6 5 6 6 7 7 6 7 6 7 8 7 5 5 4 3 2 3 3 3 2 3 2 2 6 4 3 3 4 2 1 1 4 4 4 3 4 2 2 2 3 2 2 2 5 5 4 6 4 4 4 5
10 8 8 8 8 6 5 4 6 3 2 2 3 6 2 6 4 5 6 4 3 4 5 5 4 6 9 11 11 11 10 9 8 8 8 9 9 10 8 7 7 6 7 7 7 7 7 7 8 7 8 8 8 7 7 7 4 5 3 3 2 2 2 2 4 3 3 5 7 3 0 1 3 2 2 3 2 1 1 2 1 1 1 1 1 2 3 0 2 4 3 4 5 4 5 6 5
5 4 4 6 7 3 9 5 7 7 6 5 6 5 4 5 2 3 2 4 6 7 8 8 7 8 10 10 11 11 10 10 9 8 9 10 10 10 8 7 6 7 8 7 8 7 7 8 9 9 8 7 6 7 7 6 6 5 3 4 4 2 1 3 3 4 4 4 2 1 1 2 2 2 1 2 3 1 1 0 2 2 1 1 1 1 3 4 2 5 4 4 6 0 4 4 5
8 9 9 9 3 5 6 6 5 7 7 9 3 5 5 3 4 6 6 7 8 8 8 9 9 9 10 10 10 11 10 10 9 8 8 10 10 9 8 7 7 7 7 7 7 7 7 9 10 9 9 6 7 5 7 6 6 7 5 4 4 4 5 5 6 6 5 2 2 2 3 2 3 1 2 2 2 2 2 2 4 2 1 2 2 2 3 2 3 6 4 2 6 4 4 5 4
3 8 8 5 1 7 5 8 2 5 6 2 3 6 5 2 0 4 7 6 6 8 8 9 9 10 10 10 10 10 11 10 9 9 9 10 9 9 8 7 8 8 8 8 7 7 7 6 10 9 10 10 9 7 4 6 3 6 8 7 9 8 8 7 7 5 4 4 3 2 1 2 4 3 1 3 1 2 1 1 2 2 3 3 3 5 3 3 3 5 4 4 5 4 4 5 5
11 5 9 7 8 11 9 6 9 8 6 5 4 3 6 5 2 2 9 3 5 8 9 9 10 10 10 11 11 11 11 11 10 10 10 9 9 9 8 8 8 8 8 8 8 7 7 7 8 7 7 8 7 9 8 4 9 6 8 9 9 8 8 7 5 4 3 3 3 3 3 2 2 4 3 1 2 1 1 1 1 4 1 3 3 4 3 4 5 6 6 6 3 3 4 6 6
10 7 9 2 5 6 4 5 5 3 6 5 2 4 2 2 2 6 6 4 6 9 9 9 10 10 10 11 11 12 11 10 10 9 9 9 9 9 9 9 9 9 8 8 8 7 8 8 9 8 8 8 7 7 9 8 8 7 9 9 9 7 6 5 4 3 3 3 3 3 4 4 3 2 3 1 1 3 4 5 3 2 2 4 4 5 5 5 6 6 7 7 6 4 5 6 7
10 10 9 6 7 3 6 3 6 5 5 5 5 6 1 4 5 6 5 6 8 9 8 8 8 10 11 12 11 11 11 10 9 9 10 10 9 9 10 9 9 8 7 8 8 8 8 8 10 10 10 9 8 8 8 8 8 9 10 9 8 7 6 5 4 3 3 3 2 2 3 3 2 1 2 1 1 1 2 2 3 4 5 5 4 6 7 7 6 5 5 6 7 6 6 6 7
10 12 11 10 10 9 8 8 5 7 6 6 6 5 3 9 5 5 4 4 6 7 10 9 10 11 11 12 12 12 11 10 10 10 10 10 10 10 10 10 9 9 8 8 8 8 8 8 8 9 9 9 10 10 8 9 9 8 8 7 7 5 4 3 4 3 2 4 4 2 1 2 3 1 1 2 2 3 1 2 4 4 6 6 5 5 6 6 7 7 7 6 6 7 6 7 7
Wind_Direction
167 187 159 194 235 259 266 203 239 171 228 242 223 205 109 348 105 178 141 146 170 112 122 219 144 155 167 133 103 67 25 177 26 289 65 92 145 138 130 131 139 142 139 139 135 141 145 132 155 143 138 136 133 130 130 128 128 126 125 121 120 120 121 124 123 124 125 126 130 151 154 155 159 161 162 160 155 153 150 142 121 148 186 145 132 135 155 175 206 225 200 225 261 260 278 306 309
170 172 171 211 268 283 204 268 275 187 225 242 225 244 103 116 189 164 144 142 25 133 146 176 154 144 56 143 132 162 76 52 48 82 94 112 134 129 125 140 142 140 139 137 141 145 143 137 158 148 140 139 137 134 132 129 128 124 121 119 119 120 119 121 122 123 123 126 135 135 143 152 150 153 154 155 157 154 150 141 140 136 159 183 139 167 195 202 221 235 220 225 239 252 255 246 239
159 180 183 243 253 251 322 223 256 250 222 232 128 85 138 152 124 104 103 81 75 137 143 156 138 156 164 142 155 331 76 70 83 85 104 137 136 139 141 142 139 136 136 137 143 145 142 135 159 152 145 142 138 134 130 128 127 123 122 120 119 118 118 119 120 121 124 121 128 128 132 139 137 149 152 146 159 136 138 137 147 167 161 190 157 192 209 218 225 226 215 224 230 233 223 233 221
171 207 256 299 282 191 230 219 259 308 289 1 190 112 104 92 86 92 116 78 193 178 150 147 165 52 210 168 106 98 99 110 64 106 125 155 136 139 145 139 138 137 139 140 142 141 134 134 154 149 146 143 137 132 129 128 127 127 123 123 122 121 121 120 120 121 121 126 126 125 131 131 140 137 128 140 120 141 133 135 155 145 139 136 182 187 200 212 216 215 215 220 220 218 221 230 222
203 191 259 279 310 254 289 306 306 318 317 339 38 105 87 83 98 140 92 83 220 166 174 165 125 152 355 58 62 23 93 94 100 99 138 127 124 137 142 141 142 139 140 139 138 135 131 130 142 145 144 142 137 134 133 133 134 127 123 123 124 122 121 121 121 121 121 121 125 126 123 108 108 124 135 140 124 140 133 149 145 144 140 160 168 202 219 223 216 218 224 218 220 224 227 224 221
216 209 205 260 285 352 251 257 226 16 33 353 308 42 48 49 109 130 118 126 155 170 181 174 156 159 155 68 25 85 29 163 93 119 137 121 136 140 140 146 139 144 136 136 136 135 133 127 138 143 143 143 140 139 133 132 131 128 125 123 124 124 122 121 120 119 119 118 120 126 101 146 136 154 125 129 134 142 148 156 150 139 143 173 177 198 240 239 215 219 227 227 222 222 214 217 217
210 234 205 224 230 241 330 358 338 353 43 340 353 344 33 88 111 143 139 127 109 142 212 175 150 152 133 130 93 48 36 93 222 123 141 136 137 143 145 145 141 134 137 137 135 131 123 129 137 143 142 142 142 137 136 132 133 130 127 126 125 123 119 115 112 111 111 114 119 120 133 124 118 109 108 116 104 113 127 135 146 146 143 156 159 184 189 237 213 202 222 227 221 223 225 221 221
96 265 221 268 327 216 334 12 6 10 49 355 21 304 88 96 109 137 128 161 147 163 183 187 200 81 48 333 146 70 49 12 75 126 122 139 141 142 148 144 141 136 141 138 135 125 123 132 138 139 139 132 137 136 134 134 134 129 127 126 126 122 119 114 113 113 115 114 106 106 107 102 91 87 84 78 80 95 95 115 111 133 148 160 175 177 177 197 181 193 216 232 246 246 226 217 218
198 259 257 266 302 230 342 31 42 44 52 42 81 49 79 96 101 119 24 86 131 177 167 183 194 211 111 134 77 91 71 95 112 120 135 138 143 145 147 150 143 138 140 140 132 132 134 132 137 137 137 138 143 137 136 134 131 129 127 127 126 124 123 120 119 119 114 108 108 106 102 99 97 100 108 109 111 105 104 101 96 113 120 117 91 97 88 66 73 13 266 228 223 236 242 236 226
223 272 333 314 299 356 18 51 32 52 78 58 59 81 111 113 111 30 140 128 146 147 140 178 197 272 131 112 123 113 94 109 131 135 139 140 143 147 147 147 141 142 140 138 138 137 133 132 134 137 142 140 142 135 136 133 133 132 132 131 129 126 122 124 121 118 115 117 117 116 114 111 118 115 107 97 94 94 95 88 84 76 77 70 52 56 65 85 92 50 259 250 248 243 236 237 231
272 204 285 286 16 17 25 36 44 62 79 100 77 72 97 121 144 187 223 110 134 142 133 194 174 160 161 82 56 83 113 133 150 142 142 143 145 146 143 143 144 145 144 140 140 138 140 137 134 141 145 142 142 141 138 137 136 138 136 134 129 127 126 123 121 119 121 117 115 109 104 105 102 96 96 98 103 88 85 79 75 66 70 88 90 67 58 53 74 86 259 236 245 247 236 239 231
289 343 241 329 25 9 23 32 57 72 67 96 74 82 58 108 199 122 119 118 135 139 143 257 138 160 131 148 112 115 132 150 149 141 143 144 144 146 142 139 143 147 142 140 138 142 140 138 150 142 147 146 146 141 143 141 141 140 138 134 131 130 131 126 126 121 120 117 112 109 109 108 111 109 105 112 105 112 92 91 76 82 79 69 71 65 45 44 52 46 80 99 245 233 234 223 226
295 322 333 359 17 15 20 46 56 67 72 51 90 105 75 316 98 105 98 104 112 111 187 23 103 250 160 135 99 122 151 146 149 145 144 150 145 144 144 145 147 145 144 143 141 139 144 151 149 159 145 153 150 146 147 145 146 141 139 135 132 132 132 129 123 129 121 126 122 117 111 101 100 99 106 99 110 110 110 67 60 54 38 51 59 71 42 52 59 38 332 345 291 234 224 228 216
289 344 301 16 62 36 23 66 71 75 68 72 65 77 71 79 63 92 131 108 123 143 98 83 155 178 88 120 146 151 140 149 147 145 152 146 145 146 145 141 144 145 144 145 138 144 147 148 149 155 151 174 155 155 148 148 147 144 136 135 133 135 130 131 129 126 130 117 114 107 107 118 114 118 121 127 116 81 69 58 42 32 15 29 85 81 77 65 80 30 317 210 84 220 207 210 217
288 339 280 326 30 45 25 43 39 79 80 97 88 105 113 92 85 102 104 113 83 110 135 328 4 255 120 195 147 157 147 154 152 152 152 147 147 146 142 144 144 150 149 152 143 144 147 150 148 153 167 168 163 163 156 152 147 143 142 137 139 138 134 135 131 122 115 109 104 105 122 129 98 114 113 109 68 59 54 238 70 11 353 9 83 135 156 128 115 81 33 168 118 93 183 202 193
295 292 292 7 39 28 27 42 45 84 96 108 137 149 124 106 82 119 40 349 124 141 180 114 256 265 316 247 113 137 140 153 147 154 151 146 149 149 150 148 153 147 147 154 148 150 152 166 152 160 164 174 166 162 150 155 149 146 148 141 153 158 132 121 120 122 115 114 90 94 117 195 166 129 104 139 87 103 92 1 37 0 2 352 5 33 98 133 156 156 149 141 119 141 172 168 175
274 282 301 40 47 32 21 28 11 76 103 116 140 181 125 126 118 86 98 141 142 157 160 41 242 301 236 81 119 137 144 150 149 157 154 149 157 159 153 158 157 144 152 167 161 156 160 178 161 160 170 171 158 156 153 147 139 157 168 155 147 136 118 126 133 150 169 153 182 152 201 196 118 117 159 96 146 108 86 102 21 57 30 352 354 7 30 27 54 138 139 137 136 156 167 161 170
278 309 10 45 32 37 14 37 51 104 127 130 157 134 128 127 140 111 130 143 138 155 144 113 93 40 79 109 123 139 144 154 158 162 159 161 171 160 164 166 171 160 168 166 172 172 170 180 162 168 172 171 162 164 160 152 139 176 172 153 165 155 158 166 179 156 146 140 161 176 154 132 118 112 78 162 120 139 142 70 59 45 20 350 350 348 12 346 311 325 132 144 134 162 150 151 163
281 329 30 43 29 47 13 48 83 115 118 137 135 149 145 123 147 158 165 150 156 160 144 140 116 114 111 126 134 147 154 159 163 169 168 169 175 165 170 165 178 162 171 171 174 183 178 169 174 173 159 178 171 171 164 154 159 150 152 151 145 168 151 172 156 155 125 128 104 131 172 108 78 70 85 12 349 343 279 83 236 210 210 275 278 291 276 273 275 276 187 149 143 118 124 203 154
317 307 39 49 41 60 46 42 89 65 130 140 149 142 159 136 158 149 200 151 174 197 159 170 164 149 143 143 153 155 164 165 171 173 177 175 183 170 173 169 173 177 175 177 170 182 174 176 173 174 154 172 183 172 180 169 161 167 171 159 161 163 169 161 150 146 142 136 110 12 169 106 193 136 105 193 236 233 172 189 194 228 227 219 224 246 221 222 228 253 203 171 189 124 167 257 255
54 274 34 37 27 54 63 76 75 114 141 145 146 141 146 152 145 174 153 167 189 215 179 185 170 162 158 158 161 164 168 171 176 177 179 182 188 179 181 173 178 176 178 175 169 178 175 176 171 167 165 171 177 174 182 183 155 180 171 167 171 171 173 166 176 163 163 159 190 205 226 145 14 215 160 222 273 324 288 296 219 223 214 221 182 250 254 195 198 178 159 243 204 173 143 230 251
293 3 24 22 20 68 77 79 106 136 128 155 140 163 138 140 173 190 175 236 114 166 169 181 172 164 165 167 167 171 173 175 180 183 185 187 187 186 184 173 173 178 164 184 176 171 178 178 173 163 169 174 167 188 179 142 171 185 174 167 178 178 182 185 182 173 172 185 216 197 276 193 204 195 191 235 252 248 274 285 275 261 268 270 228 259 261 251 265 281 271 262 92 210 194 151 214
301 93 33 44 35 69 97 111 125 160 165 145 162 106 131 176 171 183 193 218 78 58 175 181 170 172 165 170 171 176 181 180 185 188 189 191 190 191 186 181 177 178 170 191 173 176 182 177 174 168 170 168 174 177 158 168 176 189 188 178 197 182 188 195 196 182 172 161 215 225 251 201 216 225 198 212 254 269 277 278 294 297 284 280 294 285 288 274 262 282 297 240 304 325 164 264 102
295 5 8 70 136 82 107 106 144 156 162 128 77 149 193 179 192 180 212 210 159 62 166 175 162 163 166 175 184 181 184 187 188 192 196 199 197 196 189 193 181 177 185 185 186 181 181 184 174 187 166 176 173 172 176 175 176 179 181 163 218 149 243 203 211 200 139 183 224 289 282 274 269 257 255 243 236 253 266 289 294 285 301 296 318 297 292 283 272 264 252 239 255 241 257 294 342
299 337 48 95 86 104 116 124 152 138 138 127 172 195 187 205 332 180 221 215 206 152 145 161 155 161 174 180 186 187 186 189 190 193 200 208 199 202 196 205 199 191 194 189 192 193 182 188 178 187 171 182 171 181 179 176 169 197 178 195 204 155 224 238 204 260 230 218 190 233 248 275 272 273 275 280 302 301 298 288 288 303 294 312 309 292 282 271 253 239 236 241 231 253 99 320 350
344 352 6 135 124 128 125 139 150 162 139 178 180 196 193 210 16 249 225 205 195 180 158 156 157 167 177 183 187 191 191 192 193 193 199 208 206 206 203 207 212 208 193 203 194 198 192 184 190 186 188 177 182 181 177 168 172 178 191 202 207 183 226 217 261 236 225 231 219 209 261 286 290 287 277 294 295 298 294 288 285 279 299 295 330 318 295 280 242 213 227 251 247 227 215 150 236
332 116 161 140 121 147 154 151 142 156 151 194 222 187 167 189 209 201 193 182 190 185 173 160 168 173 181 184 186 195 194 196 197 194 197 204 213 214 210 210 218 220 195 205 208 197 194 193 189 192 192 179 183 194 170 160 176 185 189 196 195 211 194 213 228 237 255 236 221 179 254 259 279 275 277 283 280 274 274 286 287 304 296 319 349 297 314 287 259 217 214 229 216 237 259 182 213
52 121 142 146 155 166 156 163 146 167 171 213 256 230 200 182 207 263 144 170 187 192 182 171 171 178 185 187 187 189 198 196 195 196 198 200 205 209 210 208 211 224 219 223 216 209 202 201 194 181 198 178 199 200 168 180 182 188 193 210 209 195 191 234 231 240 235 251 270 218 235 264 276 292 301 301 303 308 297 292 291 289 303 330 324 318 331 303 251 253 220 228 353 241 224 198 233
146 201 216 139 177 164 172 188 168 208 158 195 236 272 227 196 225 220 167 164 176 191 186 181 179 183 189 185 186 188 195 194 197 202 205 204 201 202 208 210 209 214 216 213 223 223 214 191 191 175 204 172 197 208 186 195 188 191 196 208 206 190 219 228 246 250 252 237 222 220 237 245 257 282 307 309 297 290 293 299 294 312 319 344 330 327 315 273 254 235 26 271 213 221 207 207 218
206 221 292 183 189 177 168 162 163 206 125 183 198 262 119 192 208 155 149 169 177 190 188 191 187 185 187 186 187 193 190 189 201 207 204 203 204 202 207 205 209 215 217 201 208 227 219 189 170 180 196 194 194 207 199 196 192 193 206 203 202 220 234 241 246 247 246 244 237 213 254 267 292 304 303 311 334 333 302 295 294 293 333 294 283 305 277 273 133 185 130 253 249 249 232 218 225
256 26 265 5 287 101 162 191 165 214 135 188 217 314 48 124 170 145 165 176 188 188 194 195 190 188 185 186 188 192 195 198 201 204 204 201 202 204 205 206 206 215 230 217 206 214 216 185 172 186 187 201 192 206 194 203 196 209 199 218 208 224 238 250 268 270 257 257 267 197 262 299 293 297 301 304 302 282 280 293 297 298 301 299 15 268 263 248 300 264 130 246 245 238 251 236 242
314 251 176 115 344 93 144 181 175 215 152 201 222 242 18 96 144 155 170 180 196 199 197 196 190 192 188 188 193 194 195 202 207 207 204 200 202 206 206 207 207 208 218 222 220 211 210 191 194 201 191 199 201 201 200 202 202 219 233 189 233 194 245 254 258 276 292 298 302 306 314 306 292 287 290 286 287 300 296 295 296 291 287 283 288 267 263 238 234 264 239 244 248 249 243 282 246
192 293 35 23 345 12 163 170 187 227 158 187 218 302 319 139 130 159 170 182 196 204 204 196 195 193 190 194 196 199 195 199 203 206 207 206 202 205 206 208 207 210 209 213 208 203 209 207 202 208 201 199 205 203 204 200 201 211 224 227 212 203 240 238 250 275 264 284 304 301 310 307 296 292 295 310 319 313 300 284 268 283 287 288 300 280 268 286 279 275 232 254 289 275 264 254 269
148 182 333 57 341 352 14 139 167 188 222 212 211 250 272 71 157 170 177 188 195 206 206 204 195 200 191 201 200 199 200 201 203 202 202 203 205 203 208 208 210 209 211 212 210 207 212 213 206 205 205 198 197 200 201 206 199 202 210 214 196 207 280 302 277 272 281 294 300 312 330 305 299 312 322 334 325 305 293 293 296 294 304 320 305 297 300 297 283 289 279 276 286 288 274 260 247
1 350 327 12 327 16 339 4 106 217 211 261 223 238 263 274 182 173 187 191 204 209 207 207 201 196 196 200 204 203 203 207 207 203 200 200 204 206 208 208 208 204 191 209 209 205 209 207 201 199 206 203 204 202 205 207 199 204 209 195 187 182 217 260 274 271 275 285 290 333 312 291 286 288 302 294 302 297 286 283 285 295 301 306 302 296 278 275 290 301 300 299 282 263 266 271 267
336 328 325 311 318 353 5 11 90 280 278 247 249 257 266 246 227 198 184 195 204 213 211 213 206 202 199 204 205 206 205 214 211 199 199 199 204 204 203 202 204 203 195 208 205 201 204 209 201 205 211 199 194 193 186 191 198 197 188 177 190 195 217 220 230 262 284 293 308 294 266 272 279 284 280 275 284 281 280 281 289 305 307 300 300 294 290 286 303 296 280 270 267 253 231 246 249
307 291 297 303 319 304 39 22 49 262 293 279 277 274 266 264 253 207 190 191 202 211 214 209 213 204 203 208 207 209 208 210 196 198 198 198 201 203 204 200 202 200 191 202 213 209 205 206 212 215 211 209 202 190 181 187 193 189 193 199 205 198 211 209 222 245 256 261 270 271 274 284 281 279 270 270 270 266 267 272 282 285 288 294 286 281 294 289 248 218 222 237 242 249 242 221 249
297 300 291 307 296 341 360 7 58 281 297 316 304 287 279 271 243 218 189 189 203 207 211 214 211 208 204 208 209 208 209 191 184 182 190 191 192 202 203 205 203 205 201 209 222 219 210 210 220 223 215 207 218 192 182 192 192 188 190 202 213 193 196 219 237 245 255 260 262 276 287 289 289 274 267 266 255 261 262 264 272 282 289 274 282 302 303 269 262 253 235 253 230 279 260 189 177
287 283 299 282 341 345 291 97 82 1 275 314 324 297 291 273 238 201 198 203 211 210 211 213 211 210 209 203 209 206 201 199 194 191 184 187 187 186 201 209 217 227 217 215 223 224 219 216 220 222 219 217 193 167 166 162 151 145 187 201 211 178 186 218 238 242 243 260 268 269 271 273 270 262 262 252 262 266 263 270 270 252 259 259 262 293 286 279 284 277 229 244 211 205 268 211 199
267 268 267 311 347 317 2 132 345 301 289 323 327 303 307 273 227 204 200 211 212 213 210 212 209 213 212 207 201 202 205 200 201 192 189 179 183 184 195 210 220 223 217 206 220 225 225 224 224 215 213 210 196 173 166 171 153 160 200 211 214 150 163 206 234 258 273 267 266 259 254 257 256 263 252 245 247 260 263 263 265 274 249 244 257 284 274 265 278 246 241 291 298 228 215 187 213
262 273 283 285 331 343 331 329 322 300 223 268 302 277 238 150 158 177 189 203 214 209 208 209 205 210 214 221 208 199 202 201 200 196 189 178 183 187 188 195 209 218 210 218 227 227 225 224 219 217 212 212 207 182 176 168 140 148 157 165 167 222 239 237 247 255 245 254 262 253 260 256 255 252 248 248 249 249 265 262 248 254 255 234 254 239 253 301 265 262 48 49 21 329 325 252 155
270 266 324 330 319 316 323 316 320 307 163 175 346 320 63 120 184 100 142 179 197 204 208 206 202 201 206 215 214 196 203 201 201 196 192 185 187 176 186 186 199 216 202 209 228 233 229 228 226 216 211 201 201 191 177 159 153 173 170 175 199 220 228 225 228 237 243 241 259 267 262 254 255 261 255 257 255 242 232 239 231 246 235 211 218 232 256 230 231 265 82 35 72 71 321 206 181
277 73 49 345 313 309 307 319 314 308 331 58 339 327 331 347 15 128 156 177 190 194 213 213 204 205 204 210 212 202 200 198 200 197 185 187 180 180 182 186 197 204 197 207 228 238 232 231 221 210 209 196 197 195 181 176 170 165 165 177 199 218 220 230 235 233 245 254 277 275 275 320 274 270 295 277 248 230 220 229 226 234 225 221 208 226 220 229 208 35 275 325 330 354 290 298 314
259 58 346 338 304 309 316 313 301 296 309 253 220 311 317 299 87 115 136 172 184 193 207 214 207 206 206 207 210 210 201 200 197 194 183 185 182 185 178 182 189 206 188 186 210 217 218 222 213 208 193 174 180 164 188 177 172 166 167 188 206 216 220 237 240 239 247 263 257 270 273 126 284 275 251 223 227 215 213 218 220 217 222 207 202 212 251 308 14 119 331 333 341 280 278 308 323
297 12 329 300 311 306 301 299 300 317 314 284 157 71 281 339 73 110 151 167 181 205 209 208 209 207 207 207 208 203 205 195 196 186 179 181 176 165 167 181 145 170 171 175 203 219 223 209 200 203 183 158 179 180 171 184 197 181 177 188 196 221 230 236 230 227 240 239 249 266 303 275 244 223 203 247 231 204 199 218 214 207 201 206 222 239 269 321 315 15 319 283 261 261 274 321 294
258 340 301 281 273 272 281 293 294 286 275 291 2 339 320 339 18 153 126 100 116 92 99 195 201 204 202 202 203 204 199 190 198 180 165 170 156 156 163 128 137 168 152 152 182 213 199 177 175 194 187 158 177 162 179 206 194 169 171 184 181 186 192 225 239 253 243 200 252 219 242 276 299 224 204 232 235 204 216 217 205 199 193 196 236 304 274 202 216 213 229 297 338 311 301 273 297
293 279 280 268 251 259 267 271 287 274 257 167 25 321 319 335 331 18 0 37 23 81 106 96 173 194 198 196 196 196 193 186 186 166 148 150 144 146 120 148 139 145 140 139 147 179 177 181 165 189 165 168 136 159 189 173 164 159 150 161 184 185 183 208 208 192 178 212 226 233 236 337 217 223 204 188 213 209 204 194 203 199 240 194 300 262 253 307 329 330 325 2 254 308 317 325 291
289 267 266 276 248 228 247 239 237 257 245 105 350 326 303 300 336 44 97 127 149 286 62 126 157 176 185 185 188 185 181 178 176 158 143 141 148 130 132 139 150 148 145 148 142 157 174 182 160 163 145 145 137 146 157 148 150 137 126 147 171 163 183 211 199 174 190 228 227 201 210 200 200 189 221 169 207 189 199 200 215 218 267 295 266 308 353 327 325 310 318 309 305 339 302 296 320
227 243 244 249 245 214 242 208 226 228 276 59 346 334 243 239 281 314 104 66 46 2 325 126 143 165 173 178 180 174 176 171 172 152 146 143 143 144 148 140 146 152 147 142 138 148 163 166 159 162 137 141 141 135 141 144 134 130 144 143 152 171 170 144 171 131 140 170 270 144 191 229 203 216 207 193 175 200 188 203 228 231 229 242 301 326 336 330 315 315 343 301 323 302 316 332 310
217 223 223 235 244 236 254 251 283 277 128 40 112 332 278 297 315 28 57 81 61 76 104 127 128 155 168 171 174 169 174 167 164 156 146 139 140 139 141 139 139 138 139 137 141 148 151 156 161 158 141 139 141 131 125 131 137 141 141 153 144 153 154 156 146 175 174 180 188 239 196 188 181 219 133 182 140 176 193 185 211 240 235 272 274 264 302 327 335 314 310 326 322 349 316 301 293
210 224 242 236 258 282 267 254 259 302 1 131 138 255 290 316 350 332 88 76 86 100 121 133 126 139 160 166 168 167 164 156 155 151 142 139 134 131 133 138 139 141 137 140 143 147 161 156 151 157 141 155 148 137 132 135 140 143 142 127 110 125 162 111 166 164 153 204 212 179 200 212 199 92 137 95 92 223 284 90 263 258 128 216 253 311 290 278 345 297 319 316 320 332 333 328 311
207 202 247 268 246 240 266 349 317 341 324 283 169 269 321 313 95 126 112 109 101 108 120 143 136 147 153 162 167 165 158 156 152 142 137 130 128 126 128 138 134 134 137 137 143 157 160 152 151 152 158 156 142 137 136 135 132 138 155 148 148 180 175 218 128 133 178 190 193 143 142 269 8 135 82 151 149 238 99 99 186 127 21 219 272 284 277 302 321 313 312 315 295 97 285 303 306
168 197 217 236 339 298 282 259 261 281 253 258 313 249 237 183 204 115 122 118 110 112 129 141 139 141 156 161 164 161 154 156 148 142 138 129 125 124 128 136 135 133 138 139 147 156 151 149 145 152 134 160 130 181 135 141 144 137 154 145 160 168 188 164 142 174 183 146 176 226 212 329 65 332 143 168 133 63 38 337 331 28 130 276 226 236 286 289 297 288 303 316 282 301 321 309 306
80 217 215 105 7 304 290 287 176 248 264 282 253 273 278 283 141 163 118 93 124 131 137 140 138 148 159 158 164 159 154 150 139 134 133 127 129 130 136 139 136 138 137 137 146 148 145 152 142 153 155 150 155 131 102 145 138 167 136 191 166 177 163 160 166 169 163 183 170 232 144 168 191 142 1 66 54 147 106 252 294 315 318 349 331 302 312 332 310 291 304 273 298 326 298 287 293
248 356 17 230 192 214 208 261 262 265 257 285 232 290 274 284 3 124 117 132 171 138 140 145 150 156 155 156 157 154 150 143 141 139 132 134 135 137 142 141 130 133 135 140 144 141 142 139 138 145 137 133 139 135 151 189 171 176 155 159 154 154 155 158 167 158 166 197 176 170 143 120 125 119 140 93 287 4 258 107 297 282 218 253 257 277 285 291 305 293 290 276 260 204 277 293 293
245 278 251 210 286 285 190 207 286 343 284 262 190 239 278 104 21 21 50 65 152 149 153 157 152 155 156 158 156 156 153 150 147 141 138 137 138 141 142 138 134 131 143 141 138 142 139 133 135 133 130 133 146 157 153 167 145 143 144 146 149 153 149 144 149 166 186 165 136 138 127 171 129 145 80 259 330 3 346 327 311 266 279 293 316 323 318 312 296 303 308 309 319 320 293 293 286
194 211 224 198 238 18 300 333 263 272 299 294 297 255 177 91 55 47 99 142 152 153 150 145 149 155 157 157 159 159 159 156 149 144 141 139 139 139 136 136 130 135 137 133 141 140 132 133 136 139 144 151 154 153 152 139 138 141 143 148 146 144 148 148 144 147 153 118 138 167 159 103 74 30 80 287 263 251 288 292 312 316 317 336 325 307 313 302 298 299 304 298 292 297 298 291 297
206 200 217 216 213 203 221 241 184 248 244 265 260 276 302 72 25 65 94 112 140 140 140 146 149 153 153 158 161 160 158 157 150 149 150 144 142 139 135 126 130 133 138 139 139 130 132 134 134 140 144 146 151 151 140 140 140 142 146 145 127 134 132 124 134 166 170 163 146 142 125 113 180 106 309 289 326 294 58 344 303 335 333 310 316 317 304 322 323 326 312 301 302 306 300 293 289